CW5346 Weather Reports


Display with metric or nautical units.
time (UTC)temp
F
wind
direction
speed
MPH
gust
MPH
rain 1hr
in
rain 24hr
in
rain mn
in
humidity
%
barometer
mb
20260502181604 57 340 2.0 6.0 0.00 0.01 0.01 47 1011.1
20260502180603 57 337 2.0 8.0 0.00 0.01 0.01 46 1011.2
20260502163604 56 316 1.0 6.0 0.00 0.01 0.01 57 1011.9
20260502162603 55 315 0.0 7.0 0.00 0.01 0.01 58 1011.9
20260502161647 55 303 0.0 5.0 0.00 0.01 0.01 59 1012.0
20260502160624 55 298 4.0 11.0 0.00 0.01 0.01 58 1012.1
20260502151604 53 348 2.0 8.0 0.00 0.01 0.01 67 1012.3
20260502150604 52 348 1.0 6.0 0.00 0.01 0.01 71 1012.5
20260502130604 50 345 2.0 8.0 0.00 0.01 0.01 82 1012.9
20260502122624 49 13 3.0 12.0 0.00 0.01 0.01 86 1012.1
20260502121603 49 302 1.0 7.0 0.00 0.01 0.01 88 1012.1
20260502120646 49 284 0.0 4.0 0.00 0.01 0.01 91 1012.1
20260502115603 49 284 0.0 7.0 0.00 0.01 0.01 93 1012.0
20260502114625 49 336 0.0 0.0 0.00 0.01 0.01 95 1012.2
20260502113604 48 337 0.0 0.0 0.00 0.01 0.01 95 1012.3
20260502112603 48 338 0.0 0.0 0.00 0.01 0.01 95 1012.2
20260502111604 47 338 0.0 0.0 0.00 0.01 0.01 95 1012.3
20260502110603 47 338 0.0 0.0 0.00 0.01 0.01 95 1012.0
20260502105604 47 338 0.0 0.0 0.00 0.01 0.01 94 1011.9
20260502103603 46 355 0.0 0.0 0.00 0.01 0.01 93 1011.6
20260502102604 46 355 0.0 0.0 0.00 0.01 0.01 93 1011.4
20260502101604 47 355 0.0 0.0 0.00 0.01 0.01 93 1011.5
20260502100624 47 355 0.0 0.0 0.00 0.01 0.01 92 1011.5
20260502090624 49 355 0.0 0.0 0.01 0.01 0.01 89 1011.8
20260502070604 49 261 1.0 6.0 0.00 0.00 0.00 89 1011.2
20260502065603 49 260 0.0 0.0 0.00 0.00 0.00 91 1011.7
20260502064604 49 260 0.0 0.0 0.00 0.00 0.00 91 1011.5
20260502063603 49 260 0.0 0.0 0.00 0.00 0.00 91 1011.5
20260502062604 49 260 0.0 0.0 0.00 0.00 0.00 90 1011.2
20260502060604 49 260 0.0 0.0 0.00 0.00 0.00 90 1011.6
20260502055603 49 260 0.0 0.0 0.00 0.00 0.00 89 1011.6
20260502054603 49 260 0.0 0.0 0.00 0.00 0.00 88 1011.5
20260502053604 50 259 0.0 0.0 0.00 0.00 0.00 88 1011.4
20260502052604 50 260 0.0 0.0 0.00 0.00 0.00 87 1011.6
20260502051603 50 260 0.0 0.0 0.00 0.00 0.00 85 1011.5
20260502050625 50 260 0.0 0.0 0.00 0.00 0.00 83 1011.7
20260502045603 50 260 0.0 0.0 0.00 0.00 0.00 83 1011.8
20260502044604 50 260 0.0 0.0 0.00 0.00 0.00 83 1011.8
20260502043603 50 260 0.0 0.0 0.00 0.00 0.00 82 1011.7
20260502042604 51 260 0.0 0.0 0.00 0.00 0.00 81 1011.6
20260502041603 51 260 0.0 0.0 0.00 0.00 0.00 80 1011.6
20260502040604 51 260 0.0 0.0 0.00 0.00 0.00 79 1011.5
20260502035624 51 260 0.0 0.0 0.00 0.00 0.00 78 1011.6
20260502034603 51 260 0.0 0.0 0.00 0.00 0.00 77 1011.7
20260502033603 51 260 0.0 0.0 0.00 0.00 0.00 76 1011.6
20260502032603 51 260 0.0 0.0 0.00 0.00 0.00 75 1011.5
20260502031603 52 259 0.0 0.0 0.00 0.00 0.00 75 1011.6
20260502030603 52 260 0.0 0.0 0.00 0.00 0.00 74 1011.5
20260502025603 52 260 0.0 0.0 0.00 0.00 0.00 74 1011.9
20260502024624 52 260 0.0 0.0 0.00 0.00 0.00 72 1012.0
20260502023604 53 260 0.0 0.0 0.00 0.00 0.00 73 1011.7
20260502022603 53 260 0.0 0.0 0.00 0.00 0.00 70 1012.0
20260502021603 54 260 0.0 0.0 0.00 0.00 0.00 70 1011.9
20260502020624 54 260 0.0 0.0 0.00 0.00 0.00 69 1011.9
20260502015625 54 260 0.0 0.0 0.00 0.00 0.00 67 1011.9
20260502014603 55 260 0.0 0.0 0.00 0.00 0.00 64 1011.6
20260502012603 56 260 0.0 0.0 0.00 0.00 0.00 61 1011.5
20260502011604 56 260 0.0 6.0 0.00 0.00 0.00 62 1011.3
20260502010603 57 253 0.0 0.0 0.00 0.00 0.00 59 1011.1
20260502005603 58 253 0.0 0.0 0.00 0.00 0.00 55 1011.3
20260502004604 58 253 0.0 0.0 0.00 0.00 0.00 55 1011.2
20260502003603 59 253 0.0 0.0 0.00 0.00 0.00 56 1011.0
20260502002604 60 253 0.0 3.0 0.00 0.00 0.00 51 1010.9
20260502001603 60 252 2.0 7.0 0.00 0.00 0.00 48 1010.9
20260502000604 60 228 0.0 5.0 0.00 0.00 0.00 49 1010.8
20260501235603 61 225 5.0 8.0 0.00 0.00 0.00 50 1010.6
20260501234603 60 243 1.0 13.0 0.00 0.00 0.00 49 1010.5
20260501233603 61 238 0.0 4.0 0.00 0.00 0.00 55 1010.3
20260501232603 61 238 0.0 5.0 0.00 0.00 0.00 50 1010.1
20260501231604 62 237 0.0 8.0 0.00 0.00 0.00 49 1010.1
20260501230603 62 245 0.0 5.0 0.00 0.00 0.00 48 1010.0
20260501225603 62 245 5.0 11.0 0.00 0.00 0.00 46 1009.9
20260501224603 62 254 2.0 7.0 0.00 0.00 0.00 47 1009.8
20260501223603 62 263 3.0 10.0 0.00 0.00 0.00 46 1009.7
20260501222603 62 233 3.0 5.0 0.00 0.00 0.00 46 1009.7
20260501221603 63 226 3.0 6.0 0.00 0.00 0.00 47 1009.8
20260501220603 62 225 4.0 8.0 0.00 0.00 0.00 46 1009.8
20260501215633 62 254 1.0 5.0 0.00 0.00 0.00 48 1009.6
20260501214603 62 254 0.0 3.0 0.00 0.00 0.00 49 1009.8
20260501213603 63 254 3.0 12.0 0.00 0.00 0.00 47 1009.8
20260501212603 63 184 4.0 13.0 0.00 0.00 0.00 46 1009.7
20260501211603 63 208 3.0 9.0 0.00 0.00 0.00 43 1009.7
20260501210624 64 234 5.0 11.0 0.00 0.00 0.00 44 1009.5
20260501205603 64 259 2.0 9.0 0.00 0.00 0.00 41 1009.5
20260501204603 65 128 0.0 9.0 0.00 0.00 0.00 43 1009.4
20260501202624 63 213 3.0 13.0 0.00 0.00 0.00 45 1009.7
20260501201603 63 201 3.0 11.0 0.00 0.00 0.00 42 1009.8
20260501200603 64 220 4.0 10.0 0.00 0.00 0.00 42 1009.9
20260501195603 64 200 2.0 7.0 0.00 0.00 0.00 44 1009.8
20260501194604 64 193 3.0 12.0 0.00 0.00 0.00 43 1010.0
20260501193603 64 209 2.0 10.0 0.00 0.00 0.00 38 1009.9
20260501192625 65 223 5.0 16.0 0.00 0.00 0.00 39 1010.0
20260501191604 65 183 6.0 13.0 0.00 0.00 0.00 39 1010.1
20260501190603 65 251 3.0 10.0 0.00 0.00 0.00 38 1010.2
20260501185603 65 265 4.0 8.0 0.00 0.00 0.00 39 1010.2
20260501184603 64 266 1.0 7.0 0.00 0.00 0.00 45 1010.3
20260501183603 64 220 0.0 13.0 0.00 0.00 0.00 40 1010.6
20260501182603 63 271 4.0 10.0 0.00 0.00 0.00 43 1010.8